STARLINK-32954, 63567

Orbit data source: Space-Track

STARLINK-32954, 63567 is a payload satellite owned by SpaceX/Seattle (US) in LEO that was launched on Sun, 13 Apr 2025 UTC via an FALCON 9 launch vehicle from the Air Force Eastern Test Range (AFETR). Payload-class satellites include a variety of spacecraft equipped with specific instruments for various scientific and technological missions. These include communications satellites like Starlink; space stations such as the ISS; scientific satellites like the Hubble; Earth observation satellites from companies like Planet Labs, Umbra, and HawkEye 360; GPS; miniature CubeSats for education and research; and military/defense satellites.

Loading next visibility...
Identifier
63567, 2025-075V
Orbit
LEO
Country
Flag of USUS
Related business
Manufacturer
SpaceX/Seattle
Mission
Operational Commercial Communications
Bus & Motor
STARLINK V2M, Unknown motor
Mass
730 kg wet, ~700 kg dry
Launch date (UTC)
2025-04-13 (1 year ago)
Launch vehicle
FALCON 9
Launch site
Air Force Eastern Test Range (AFETR)
Object type
Payload
Rocket body
Debris
Shape & HBR
Box + 2 Pan, 17.7 m
Radar Cross Section
33.884 m², Large (>1 m²)

Expand to show TLE details & history
Last TLE update: 12 hours ago

TLE from 12 hours ago
0 STARLINK-32954
1 63567U 25075V   26171.33336806 -.00025198  00000-0 -90903-3 0  9996
2 63567  43.0032  50.7982 0001524 271.2330 206.4316 15.27587257  5828
Epoch: 2026-06-20T08:00Z
TLE epoch observation values (Epoch: 2026-06-20T08:00:03.000Z)
Latitude
37.30621°
Longitude
147.89479°
Altitude
485.874 km
Speed
7.627 km/s
True Right ascension
11h 45m 49s
True Declination
37° 08' 02"
Sunlit
Object was in daylight at epoch
Visualization orbit readout
Latitude
Unknown
Longitude
Unknown
Altitude
Unknown
Speed
Unknown
Apparent Right ascension
Unknown
Apparent Declination
Unknown
Sunlit
N/A
Visualization observer readout
Local Sidereal Time
07:14:06
Azimuth
Unknown
Elevation
Unknown
Doppler factor
Unknown
Orbital elements
Apogee altitude
486.018 km
Perigee altitude
483.926 km
Semi-major axis
6,863.109 km
Eccentricity
0.00015
Inclination
43.0032°
RAAN
50.7982°
Arg. of periapsis
271.233°
True anomaly
206.42383°
Mean anomaly
206.4316°
Eccentric anomaly
206.42771°
Mean motion
3.81735 °/min
Orbital period
94.31 mins
BSTAR
-0.00090903
Loading maneuver chart data...
Computing Atmospheric mass density...
Loading historical data...
Loading historical data...
Loading historical data...
Loading historical data...
Loading historical data...
Loading historical data...
Loading historical data...

Documentation

Showing up to 5 results
|